This is the latest recevied weather packets stored in our database for station/object DB0MOD. If no packets are shown the sender has not sent any weather packets the latest 1 day(s).
| Time | Temp. | Humidity | Pressure | Rain* | Wind** | Luminosity | Snow |
|---|---|---|---|---|---|---|---|
| 1777970644 | 18.33° C | 10% | 1008.7 hPa | 0 mm | 0 m/s | - | - |
| 1777970346 | 17.78° C | 10% | 1008.7 hPa | 0 mm | 0 m/s | - | - |
| 1777970044 | 16.67° C | 10% | 1008.7 hPa | 0 mm | 0 m/s | - | - |
| 1777969744 | 16.11° C | 10% | 1008.7 hPa | 0 mm | 0 m/s | - | - |
| 1777969444 | 15.56° C | 10% | 1008.7 hPa | 0 mm | 0 m/s | - | - |
| 1777969144 | 15.56° C | 10% | 1008.6 hPa | 0 mm | 0 m/s | - | - |
| 1777968844 | 15.56° C | 10% | 1008.7 hPa | 0 mm | 0 m/s | - | - |
| 1777968544 | 16.11° C | 10% | 1008.8 hPa | 0 mm | 0 m/s | - | - |
| 1777968244 | 17.22° C | 10% | 1009 hPa | 0 mm | 0 m/s | - | - |
| 1777967944 | 17.78° C | 10% | 1008.9 hPa | 0 mm | 0 m/s | - | - |
| 1777967644 | 17.22° C | 10% | 1008.8 hPa | 0 mm | 0 m/s | - | - |
| 1777967044 | 16.11° C | 10% | 1008.8 hPa | 0 mm | 0 m/s | - | - |
| 1777966744 | 15.56° C | 10% | 1008.9 hPa | 0 mm | 0 m/s | - | - |
| 1777966444 | 14.44° C | 10% | 1008.9 hPa | 0 mm | 0 m/s | - | - |
| 1777966144 | 13.89° C | 10% | 1008.8 hPa | 0 mm | 0 m/s | - | - |
| 1777965544 | 12.78° C | 10% | 1009 hPa | 0 mm | 0 m/s | - | - |
| 1777965244 | 11.67° C | 10% | 1009 hPa | 0 mm | 0 m/s | - | - |
| 1777964944 | 11.11° C | 10% | 1009 hPa | 0 mm | 0 m/s | - | - |
| 1777964645 | 11.11° C | 10% | 1009.1 hPa | 0 mm | 0 m/s | - | - |
| 1777964345 | 11.11° C | 10% | 1009.2 hPa | 0 mm | 0 m/s | - | - |
| 1777964044 | 10.56° C | 10% | 1009.1 hPa | 0 mm | 0 m/s | - | - |
| 1777963744 | 10° C | 10% | 1009.1 hPa | 0 mm | 0 m/s | - | - |
| 1777963444 | 8.89° C | 10% | 1009.3 hPa | 0 mm | 0 m/s | - | - |
| 1777963144 | 8.89° C | 10% | 1009.1 hPa | 0 mm | 0 m/s | - | - |
| 1777962544 | 8.89° C | 10% | 1009.4 hPa | 0 mm | 0 m/s | - | - |
* Rain latest hour (hover to see other rain measurements)
** Current wind speed in m/s (hover to see current wind gust speed)